Temp
-7 -7 -7 -7 -7 -7 -6 -6 -6 -6 -6 -5 -5 -5 -5 -5 -5 -5 -5 -5 -5 -5 -5 -5 -5 -5 -5 -5 -5 -5 -5 -5 -5 -5 -5 -5 -5 -5 -6 -6 -6 -6 -6 -6 -6 -6 -6 -6 -7 -7 -7 -7 -7 -7 -7 -7 -7 -8 -8 -8 -8 -8 -8
-7 -6 -6 -7 -7 -7 -7 -6 -6 -5 -5 -5 -5 -5 -5 -5 -5 -5 -5 -5 -5 -5 -5 -5 -5 -5 -5 -5 -5 -5 -5 -5 -5 -5 -6 -6 -5 -6 -6 -6 -6 -6 -6 -6 -6 -6 -6 -6 -7 -7 -7 -7 -7 -7 -7 -7 -7 -8 -8 -8 -8 -8 -8
-6 -6 -6 -6 -6 -7 -7 -7 -6 -6 -5 -5 -5 -5 -5 -5 -5 -5 -5 -5 -5 -5 -5 -5 -5 -5 -5 -5 -5 -5 -5 -5 -6 -6 -6 -6 -6 -6 -6 -6 -6 -6 -6 -6 -6 -6 -6 -6 -7 -7 -7 -7 -7 -7 -7 -7 -8 -8 -8 -8 -8 -8 -8
-6 -6 -6 -6 -6 -7 -7 -7 -6 -6 -5 -5 -5 -5 -5 -5 -5 -5 -5 -5 -5 -5 -5 -6 -6 -6 -5 -5 -5 -5 -5 -5 -6 -6 -6 -6 -6 -6 -6 -6 -6 -6 -6 -6 -6 -7 -7 -7 -7 -7 -7 -8 -7 -7 -7 -7 -8 -8 -8 -8 -8 -8 -8
-6 -6 -6 -6 -6 -6 -6 -6 -6 -6 -6 -5 -5 -5 -6 -6 -5 -5 -5 -5 -5 -5 -5 -6 -5 -5 -5 -5 -5 -5 -5 -5 -6 -6 -6 -6 -6 -6 -6 -6 -6 -6 -6 -6 -6 -7 -7 -7 -7 -7 -7 -8 -7 -7 -7 -7 -8 -8 -8 -8 -8 -8 -8
-6 -6 -6 -6 -6 -6 -6 -6 -6 -6 -6 -5 -5 -5 -6 -6 -5 -5 -5 -5 -5 -5 -5 -5 -5 -6 -6 -5 -5 -5 -5 -6 -6 -6 -6 -7 -7 -6 -6 -7 -7 -6 -6 -6 -7 -7 -7 -7 -7 -7 -7 -7 -7 -7 -8 -8 -8 -8 -8 -8 -8 -8 -9
-6 -6 -6 -6 -6 -6 -6 -7 -7 -6 -6 -5 -5 -5 -6 -5 -5 -5 -5 -5 -5 -5 -5 -6 -6 -6 -6 -6 -6 -6 -6 -6 -6 -6 -7 -7 -7 -7 -7 -7 -7 -7 -7 -7 -7 -7 -7 -7 -7 -7 -7 -7 -7 -8 -8 -8 -8 -8 -8 -8 -8 -8 -9
-6 -6 -6 -6 -6 -6 -7 -7 -7 -6 -6 -6 -5 -5 -5 -5 -5 -5 -5 -5 -5 -5 -5 -6 -6 -6 -6 -6 -6 -6 -6 -6 -6 -6 -7 -7 -7 -7 -7 -7 -7 -7 -7 -7 -7 -7 -7 -7 -7 -7 -7 -7 -7 -8 -8 -8 -8 -8 -8 -8 -8 -9 -9
-6 -6 -6 -6 -6 -7 -7 -7 -7 -6 -6 -6 -6 -6 -6 -5 -5 -5 -5 -5 -5 -5 -6 -6 -6 -6 -6 -6 -6 -6 -6 -6 -6 -6 -7 -7 -7 -7 -7 -7 -8 -7 -7 -7 -7 -7 -7 -7 -7 -8 -8 -8 -8 -8 -8 -8 -8 -8 -8 -8 -9 -9 -9
-6 -6 -6 -6 -6 -6 -7 -7 -7 -6 -6 -6 -6 -6 -6 -5 -5 -5 -5 -5 -5 -6 -6 -6 -6 -6 -6 -6 -6 -6 -6 -6 -7 -7 -7 -7 -7 -7 -8 -8 -8 -8 -8 -8 -8 -8 -8 -8 -8 -8 -8 -8 -8 -8 -8 -8 -8 -8 -9 -9 -9 -9 -9
-6 -6 -6 -6 -6 -6 -6 -7 -7 -6 -6 -6 -6 -6 -6 -6 -6 -5 -5 -6 -6 -6 -6 -7 -7 -7 -7 -7 -7 -6 -6 -7 -7 -7 -7 -7 -8 -8 -8 -8 -8 -8 -8 -8 -8 -8 -8 -8 -8 -8 -8 -8 -8 -8 -8 -8 -8 -9 -9 -9 -9 -9 -9
-5 -6 -6 -6 -6 -6 -6 -6 -7 -7 -6 -6 -6 -6 -6 -6 -6 -6 -5 -6 -6 -6 -7 -7 -7 -7 -7 -7 -7 -7 -7 -7 -7 -7 -8 -8 -8 -8 -8 -8 -8 -9 -9 -9 -8 -8 -8 -8 -8 -8 -8 -8 -8 -8 -8 -8 -8 -9 -9 -9 -9 -9 -9
-5 -5 -6 -6 -6 -7 -6 -6 -7 -7 -6 -6 -6 -6 -6 -6 -6 -6 -6 -6 -6 -7 -7 -7 -7 -7 -7 -7 -7 -7 -7 -7 -8 -8 -8 -8 -8 -8 -8 -8 -8 -9 -9 -9 -9 -9 -9 -8 -8 -8 -8 -8 -8 -8 -8 -8 -8 -9 -9 -9 -9 -9 -9
-5 -5 -5 -6 -6 -6 -7 -6 -7 -7 -6 -6 -7 -6 -6 -6 -6 -6 -6 -6 -7 -7 -7 -7 -7 -7 -7 -7 -7 -7 -7 -8 -8 -8 -8 -8 -8 -8 -8 -8 -8 -8 -9 -9 -9 -9 -9 -8 -8 -8 -8 -8 -8 -8 -8 -8 -8 -9 -9 -9 -9 -9 -9
-5 -5 -5 -6 -6 -6 -7 -7 -7 -7 -6 -6 -7 -7 -7 -6 -6 -6 -6 -7 -7 -7 -7 -7 -7 -7 -7 -7 -7 -7 -7 -8 -8 -8 -8 -8 -8 -8 -8 -8 -8 -8 -8 -8 -9 -9 -9 -9 -8 -8 -8 -8 -8 -8 -8 -8 -9 -9 -9 -9 -9 -9 -9
-5 -5 -6 -6 -6 -7 -7 -7 -6 -7 -7 -6 -7 -7 -7 -7 -7 -7 -7 -7 -7 -7 -7 -7 -7 -7 -7 -7 -7 -7 -8 -8 -8 -8 -8 -8 -8 -8 -8 -8 -8 -8 -8 -8 -8 -8 -8 -8 -8 -8 -8 -8 -8 -8 -8 -8 -9 -9 -9 -9 -9 -9 -9
-5 -6 -6 -6 -6 -7 -7 -7 -6 -6 -6 -6 -7 -7 -7 -7 -7 -7 -7 -7 -7 -7 -7 -7 -7 -7 -7 -7 -7 -7 -8 -8 -8 -8 -8 -8 -8 -8 -8 -8 -8 -8 -8 -8 -8 -8 -8 -8 -8 -8 -8 -8 -8 -8 -8 -9 -9 -9 -9 -9 -9 -9 -9
-5 -5 -5 -6 -6 -7 -7 -7 -7 -6 -6 -6 -7 -7 -7 -7 -7 -7 -7 -7 -7 -8 -8 -8 -7 -7 -8 -8 -7 -8 -8 -8 -8 -8 -8 -8 -8 -8 -8 -8 -8 -8 -8 -8 -8 -8 -8 -7 -7 -8 -8 -8 -8 -8 -8 -9 -9 -9 -9 -9 -9 -9 -9
-5 -5 -6 -6 -6 -7 -7 -7 -7 -7 -7 -7 -7 -7 -7 -7 -7 -7 -7 -7 -7 -7 -8 -8 -8 -8 -8 -8 -8 -8 -8 -8 -8 -8 -8 -8 -8 -8 -8 -8 -8 -8 -8 -8 -8 -8 -8 -7 -7 -8 -8 -8 -8 -8 -9 -9 -9 -9 -9 -9 -9 -9 -9
-5 -5 -6 -6 -6 -6 -6 -6 -7 -7 -7 -7 -7 -7 -7 -7 -7 -7 -7 -7 -7 -7 -7 -7 -8 -8 -8 -8 -8 -8 -8 -8 -8 -8 -8 -8 -8 -8 -8 -8 -8 -8 -8 -8 -8 -8 -8 -8 -8 -8 -8 -8 -8 -8 -9 -9 -9 -9 -9 -9 -9 -9 -9
-5 -6 -6 -6 -6 -6 -6 -6 -7 -7 -7 -7 -7 -7 -7 -7 -7 -7 -7 -7 -7 -7 -7 -7 -7 -7 -8 -8 -8 -8 -8 -8 -8 -8 -8 -8 -8 -8 -8 -8 -8 -8 -8 -8 -8 -8 -8 -8 -8 -8 -8 -8 -8 -8 -9 -9 -9 -9 -9 -9 -9 -9 -9
-5 -6 -6 -6 -6 -6 -6 -6 -7 -7 -7 -7 -7 -7 -7 -7 -7 -7 -7 -7 -7 -7 -7 -7 -7 -7 -7 -8 -8 -8 -8 -8 -8 -8 -8 -8 -8 -8 -8 -8 -8 -8 -8 -8 -8 -8 -8 -8 -8 -8 -8 -8 -8 -8 -9 -9 -9 -9 -9 -9 -9 -9 -9
-5 -5 -6 -6 -6 -6 -6 -6 -7 -7 -7 -7 -7 -7 -7 -7 -7 -7 -7 -7 -7 -7 -7 -7 -7 -7 -7 -8 -8 -8 -8 -8 -8 -8 -8 -8 -8 -8 -8 -8 -8 -8 -8 -8 -8 -8 -8 -8 -8 -8 -8 -8 -8 -8 -9 -9 -9 -9 -9 -9 -9 -9 -9
-5 -5 -5 -6 -6 -6 -6 -6 -7 -7 -7 -7 -7 -7 -7 -7 -7 -7 -7 -7 -7 -7 -7 -7 -7 -7 -7 -7 -8 -8 -8 -8 -8 -8 -8 -8 -8 -8 -8 -8 -8 -8 -8 -8 -8 -8 -8 -8 -8 -8 -8 -8 -8 -9 -9 -9 -9 -9 -9 -9 -9 -9 -9
-5 -5 -5 -6 -7 -7 -6 -7 -7 -7 -7 -7 -7 -7 -7 -7 -7 -7 -7 -7 -7 -7 -7 -7 -7 -7 -8 -8 -8 -8 -8 -8 -8 -8 -8 -8 -8 -8 -8 -8 -8 -8 -8 -8 -8 -8 -8 -8 -8 -8 -8 -8 -8 -9 -9 -9 -9 -9 -9 -9 -9 -9 -9
-6 -5 -6 -6 -7 -7 -7 -7 -7 -7 -7 -7 -7 -7 -7 -7 -7 -7 -7 -7 -7 -7 -7 -7 -7 -8 -8 -8 -8 -8 -8 -8 -8 -8 -8 -8 -8 -8 -8 -8 -9 -9 -8 -8 -8 -8 -8 -8 -8 -8 -8 -8 -8 -9 -9 -9 -9 -9 -9 -9 -9 -9 -9
-6 -6 -6 -6 -7 -7 -7 -7 -7 -7 -7 -7 -7 -7 -7 -7 -7 -7 -7 -7 -7 -7 -7 -7 -7 -8 -8 -8 -8 -8 -8 -8 -8 -8 -8 -8 -8 -8 -8 -8 -9 -9 -9 -8 -8 -8 -8 -8 -8 -8 -8 -8 -8 -8 -9 -9 -9 -9 -9 -9 -9 -9 -9
-6 -6 -6 -7 -7 -7 -7 -7 -7 -7 -7 -7 -7 -7 -7 -7 -7 -7 -7 -7 -7 -7 -7 -8 -8 -8 -8 -8 -8 -8 -8 -8 -8 -8 -8 -8 -8 -8 -8 -8 -9 -9 -9 -8 -8 -8 -8 -8 -8 -8 -8 -8 -8 -8 -8 -9 -9 -9 -9 -9 -9 -9 -9
-6 -6 -6 -7 -7 -7 -7 -7 -7 -7 -7 -7 -7 -7 -7 -7 -7 -7 -7 -7 -7 -8 -8 -8 -8 -8 -8 -8 -8 -8 -8 -8 -8 -8 -8 -8 -8 -9 -8 -8 -8 -8 -8 -8 -8 -8 -8 -8 -8 -8 -8 -8 -8 -8 -8 -8 -9 -9 -9 -9 -9 -9 -9
-6 -6 -6 -6 -7 -7 -7 -7 -7 -7 -8 -7 -7 -8 -8 -7 -7 -8 -8 -7 -8 -8 -8 -8 -8 -8 -8 -8 -8 -8 -8 -8 -8 -8 -8 -8 -8 -9 -9 -8 -8 -8 -8 -8 -8 -8 -8 -8 -8 -8 -9 -9 -8 -8 -8 -8 -8 -9 -9 -9 -9 -9 -9
-7 -7 -6 -6 -6 -6 -7 -7 -7 -7 -7 -7 -7 -8 -8 -8 -8 -8 -8 -8 -8 -8 -8 -8 -8 -8 -8 -8 -8 -8 -8 -8 -8 -8 -8 -8 -8 -8 -8 -9 -9 -8 -8 -8 -8 -8 -9 -9 -8 -8 -8 -9 -9 -9 -8 -8 -8 -9 -9 -9 -9 -9 -9
-8 -7 -7 -7 -6 -6 -6 -7 -7 -7 -7 -7 -7 -7 -8 -8 -8 -8 -8 -8 -8 -8 -8 -8 -8 -8 -8 -8 -8 -8 -8 -8 -8 -8 -8 -8 -8 -8 -8 -9 -9 -9 -9 -9 -9 -9 -9 -9 -8 -8 -8 -9 -9 -9 -9 -8 -8 -9 -9 -9 -9 -9 -9
-8 -8 -8 -7 -7 -7 -7 -7 -7 -7 -7 -7 -7 -7 -7 -7 -7 -7 -8 -8 -8 -8 -8 -8 -8 -8 -8 -8 -8 -8 -8 -8 -8 -8 -9 -9 -9 -9 -9 -9 -9 -9 -9 -9 -9 -9 -9 -9 -9 -9 -8 -8 -9 -9 -9 -9 -9 -9 -9 -9 -9 -9 -9
-8 -8 -8 -8 -7 -7 -7 -7 -7 -7 -7 -7 -7 -7 -7 -7 -7 -7 -7 -7 -7 -8 -8 -8 -8 -8 -9 -9 -9 -9 -9 -9 -9 -9 -9 -9 -9 -9 -9 -9 -9 -9 -9 -9 -9 -9 -9 -9 -9 -9 -9 -9 -9 -9 -9 -9 -9 -9 -9 -9 -9 -9 -10
-9 -8 -8 -8 -8 -8 -7 -7 -7 -7 -8 -8 -8 -8 -8 -8 -8 -8 -8 -8 -8 -8 -8 -8 -9 -9 -9 -9 -9 -9 -9 -9 -9 -9 -9 -9 -9 -9 -9 -9 -9 -9 -9 -9 -9 -9 -9 -9 -9 -9 -9 -9 -9 -9 -9 -9 -9 -9 -9 -9 -9 -10 -10
-8 -8 -8 -8 -8 -8 -7 -7 -7 -7 -7 -8 -8 -8 -8 -8 -8 -8 -8 -8 -8 -8 -8 -9 -9 -9 -9 -9 -9 -9 -9 -9 -9 -9 -8 -8 -8 -9 -9 -9 -9 -9 -8 -9 -9 -9 -9 -9 -9 -9 -9 -9 -9 -9 -9 -9 -9 -9 -9 -9 -9 -10 -10
-9 -8 -8 -8 -8 -8 -8 -8 -8 -7 -7 -8 -8 -8 -8 -8 -8 -8 -8 -8 -8 -8 -8 -8 -8 -8 -8 -8 -8 -8 -8 -8 -8 -8 -8 -8 -8 -8 -8 -8 -8 -8 -8 -8 -8 -9 -9 -9 -9 -9 -9 -9 -9 -9 -9 -9 -9 -9 -9 -9 -9 -9 -9
-9 -9 -9 -9 -9 -8 -8 -8 -8 -8 -7 -7 -8 -8 -8 -8 -8 -8 -8 -8 -8 -8 -8 -8 -8 -8 -8 -8 -8 -8 -8 -8 -8 -8 -8 -8 -8 -8 -8 -8 -8 -8 -8 -8 -8 -8 -8 -9 -9 -9 -9 -9 -9 -9 -9 -9 -9 -9 -9 -9 -9 -9 -9
Height
5871 5873 5875 5877 5879 5881 5883 5884 5886 5887 5888 5889 5891 5892 5893 5895 5896 5898 5900 5901 5902 5903 5904 5905 5907 5907 5909 5909 5910 5910 5910 5911 5912 5913 5913 5913 5914 5915 5915 5916 5917 5917 5917 5918 5919 5919 5919 5919 5919 5919 5919 5919 5920 5920 5920 5920 5920 5920 5920 5920 5920 5920 5920
5870 5871 5873 5874 5876 5879 5881 5882 5883 5885 5886 5888 5889 5890 5892 5893 5895 5896 5898 5899 5900 5901 5902 5903 5904 5905 5906 5907 5907 5908 5908 5909 5910 5911 5912 5912 5913 5913 5914 5914 5915 5915 5916 5916 5917 5918 5918 5918 5917 5917 5917 5918 5918 5918 5918 5918 5919 5919 5919 5919 5919 5919 5919
5869 5871 5872 5873 5875 5877 5878 5879 5880 5882 5884 5885 5887 5888 5890 5891 5893 5895 5895 5896 5897 5898 5900 5901 5902 5903 5904 5904 5905 5906 5906 5907 5908 5909 5910 5910 5911 5911 5912 5912 5913 5913 5914 5915 5916 5916 5917 5916 5916 5916 5916 5916 5916 5916 5917 5917 5917 5918 5918 5918 5918 5918 5918
5869 5870 5871 5872 5873 5875 5876 5877 5878 5879 5881 5883 5885 5886 5888 5889 5891 5892 5893 5894 5895 5896 5898 5899 5899 5900 5901 5902 5903 5903 5904 5904 5905 5906 5907 5907 5908 5909 5910 5911 5911 5911 5912 5913 5913 5914 5915 5915 5915 5915 5914 5915 5915 5915 5915 5915 5916 5916 5916 5917 5917 5917 5917
5867 5869 5869 5870 5871 5872 5873 5875 5876 5877 5878 5880 5882 5883 5885 5887 5888 5889 5890 5891 5892 5894 5895 5896 5897 5898 5899 5900 5900 5901 5901 5901 5902 5903 5904 5904 5905 5906 5908 5909 5909 5909 5910 5911 5911 5912 5913 5913 5913 5913 5913 5913 5913 5913 5914 5914 5914 5915 5915 5915 5916 5916 5916
5865 5866 5867 5868 5869 5870 5872 5873 5873 5875 5876 5878 5879 5881 5882 5883 5884 5886 5887 5888 5890 5891 5893 5893 5895 5896 5896 5897 5897 5898 5898 5898 5899 5899 5900 5901 5902 5904 5906 5906 5906 5907 5907 5908 5909 5910 5910 5911 5911 5911 5911 5911 5912 5912 5912 5913 5913 5913 5913 5914 5914 5914 5914
5862 5863 5865 5866 5867 5868 5869 5870 5871 5872 5873 5875 5876 5877 5878 5879 5881 5883 5884 5885 5887 5889 5890 5892 5892 5893 5893 5894 5894 5895 5895 5895 5896 5896 5897 5898 5899 5901 5902 5903 5904 5904 5904 5905 5907 5907 5908 5908 5908 5909 5909 5909 5910 5911 5911 5911 5911 5911 5912 5912 5913 5912 5912
5858 5860 5862 5864 5865 5866 5867 5868 5869 5869 5870 5871 5873 5874 5875 5876 5878 5880 5881 5882 5884 5885 5888 5889 5890 5890 5890 5891 5892 5892 5892 5892 5893 5893 5894 5895 5896 5898 5899 5900 5900 5901 5901 5903 5904 5904 5905 5905 5906 5906 5907 5908 5909 5909 5910 5910 5910 5910 5910 5910 5911 5910 5910
5854 5857 5860 5861 5862 5863 5864 5865 5866 5866 5867 5868 5869 5871 5872 5874 5876 5877 5879 5880 5881 5882 5885 5887 5887 5888 5888 5889 5889 5889 5889 5890 5890 5890 5891 5892 5893 5895 5896 5896 5896 5897 5898 5899 5900 5901 5902 5903 5903 5904 5905 5906 5907 5908 5909 5909 5909 5908 5908 5908 5909 5908 5908
5851 5854 5856 5858 5859 5860 5861 5862 5862 5862 5863 5865 5867 5868 5869 5871 5873 5874 5876 5877 5878 5880 5882 5884 5884 5885 5886 5886 5887 5887 5887 5888 5888 5888 5889 5889 5890 5891 5892 5892 5892 5893 5894 5896 5897 5898 5899 5900 5901 5902 5903 5904 5905 5906 5907 5907 5907 5906 5906 5907 5907 5907 5907
5847 5850 5852 5854 5855 5857 5857 5859 5859 5859 5860 5862 5864 5866 5867 5868 5870 5872 5873 5875 5875 5877 5879 5880 5881 5882 5883 5884 5884 5885 5885 5886 5886 5887 5887 5887 5887 5888 5888 5888 5889 5889 5891 5892 5894 5895 5896 5897 5898 5899 5901 5902 5903 5904 5905 5905 5905 5905 5905 5905 5905 5905 5905
5844 5847 5849 5850 5852 5853 5854 5855 5856 5856 5857 5859 5861 5863 5864 5866 5867 5869 5871 5872 5873 5875 5876 5877 5879 5880 5881 5881 5882 5883 5884 5884 5885 5885 5885 5885 5885 5885 5885 5885 5886 5886 5887 5889 5890 5892 5893 5894 5896 5897 5898 5899 5900 5902 5903 5904 5904 5903 5903 5903 5903 5903 5903
5841 5843 5845 5847 5849 5850 5851 5852 5853 5853 5854 5856 5858 5860 5862 5863 5865 5866 5868 5869 5871 5872 5873 5874 5876 5878 5879 5879 5880 5881 5882 5882 5883 5883 5883 5883 5883 5883 5883 5883 5883 5883 5885 5886 5887 5889 5890 5892 5893 5894 5895 5896 5897 5899 5901 5902 5902 5902 5901 5901 5901 5901 5901
5837 5840 5842 5844 5845 5847 5849 5850 5851 5851 5852 5854 5855 5857 5859 5861 5862 5864 5865 5867 5868 5869 5871 5872 5873 5875 5876 5877 5878 5879 5880 5881 5881 5881 5881 5881 5881 5881 5881 5881 5881 5881 5882 5883 5885 5886 5888 5889 5891 5891 5892 5894 5895 5896 5898 5899 5899 5900 5899 5899 5899 5899 5899
5835 5837 5839 5841 5842 5845 5846 5848 5849 5849 5850 5851 5853 5854 5857 5858 5860 5861 5863 5864 5865 5867 5869 5870 5871 5873 5874 5875 5876 5877 5878 5878 5879 5879 5879 5880 5880 5880 5880 5880 5879 5879 5880 5881 5883 5884 5885 5887 5888 5889 5890 5891 5892 5894 5895 5896 5897 5897 5897 5897 5897 5897 5896
5832 5834 5836 5838 5839 5842 5844 5845 5846 5847 5848 5849 5850 5852 5854 5856 5858 5859 5861 5862 5863 5865 5867 5868 5869 5870 5871 5872 5874 5875 5876 5876 5877 5877 5878 5878 5879 5879 5879 5878 5878 5878 5879 5880 5881 5882 5883 5885 5886 5887 5888 5889 5890 5891 5892 5893 5894 5894 5894 5894 5894 5894 5894
5829 5830 5832 5834 5836 5838 5840 5842 5844 5845 5846 5847 5848 5850 5852 5854 5855 5857 5858 5860 5861 5863 5864 5865 5867 5868 5869 5871 5872 5872 5873 5874 5874 5875 5876 5876 5877 5877 5877 5877 5877 5877 5878 5879 5879 5880 5881 5882 5884 5885 5885 5886 5887 5888 5889 5890 5890 5890 5891 5891 5892 5892 5892
5825 5827 5828 5831 5833 5835 5837 5839 5841 5843 5844 5846 5847 5848 5850 5851 5853 5854 5855 5857 5859 5860 5861 5862 5864 5865 5867 5869 5869 5869 5870 5871 5872 5872 5873 5874 5874 5875 5875 5875 5875 5876 5876 5877 5877 5878 5879 5880 5881 5882 5882 5883 5884 5885 5886 5886 5886 5887 5888 5888 5889 5889 5889
5821 5823 5826 5828 5830 5832 5834 5836 5838 5840 5842 5843 5845 5846 5848 5849 5850 5851 5853 5855 5856 5856 5857 5859 5861 5863 5864 5866 5866 5867 5867 5868 5869 5870 5871 5871 5871 5872 5872 5872 5873 5874 5874 5875 5875 5875 5876 5877 5878 5879 5879 5880 5881 5882 5882 5883 5883 5884 5885 5885 5886 5886 5886
5817 5820 5822 5824 5826 5828 5830 5833 5835 5836 5838 5840 5842 5844 5845 5845 5847 5848 5849 5851 5851 5852 5854 5856 5858 5860 5862 5863 5863 5864 5865 5865 5866 5867 5868 5868 5868 5868 5869 5870 5871 5871 5872 5872 5872 5872 5873 5874 5874 5875 5876 5877 5878 5878 5878 5879 5879 5880 5881 5882 5882 5882 5883
5813 5816 5818 5820 5822 5824 5827 5829 5831 5833 5835 5837 5838 5840 5841 5842 5843 5845 5845 5846 5847 5849 5851 5853 5855 5856 5858 5859 5860 5861 5862 5862 5863 5864 5864 5865 5865 5865 5866 5867 5868 5869 5869 5869 5870 5870 5870 5870 5870 5872 5873 5873 5874 5874 5875 5875 5876 5877 5878 5878 5878 5878 5879
5810 5811 5814 5816 5818 5820 5823 5826 5828 5829 5831 5832 5833 5835 5836 5838 5840 5841 5842 5843 5844 5846 5848 5850 5851 5853 5854 5855 5857 5858 5859 5859 5860 5860 5861 5861 5861 5862 5862 5863 5864 5865 5866 5866 5867 5867 5867 5867 5867 5868 5869 5870 5870 5871 5871 5872 5873 5874 5874 5874 5874 5874 5874
5806 5808 5810 5812 5814 5817 5819 5822 5824 5826 5827 5828 5830 5831 5833 5834 5836 5837 5839 5839 5840 5842 5844 5845 5847 5849 5850 5851 5853 5854 5855 5856 5856 5856 5857 5857 5857 5858 5859 5860 5861 5861 5862 5863 5863 5863 5864 5864 5864 5864 5865 5865 5866 5867 5868 5869 5869 5870 5870 5870 5869 5869 5870
5802 5804 5806 5808 5810 5813 5815 5818 5820 5822 5824 5825 5827 5828 5830 5831 5832 5833 5834 5835 5836 5838 5840 5841 5843 5845 5846 5847 5848 5848 5850 5852 5852 5852 5852 5852 5853 5854 5855 5855 5856 5857 5858 5858 5859 5860 5860 5860 5860 5860 5861 5861 5862 5863 5864 5865 5865 5866 5866 5865 5865 5865 5866
5799 5801 5803 5804 5806 5808 5811 5814 5816 5818 5820 5821 5823 5825 5826 5827 5828 5829 5830 5832 5833 5835 5836 5838 5840 5841 5842 5843 5843 5843 5845 5846 5846 5846 5847 5848 5848 5849 5849 5850 5851 5852 5852 5853 5855 5856 5856 5856 5856 5856 5857 5858 5858 5859 5859 5860 5861 5861 5861 5860 5860 5860 5861
5795 5797 5799 5801 5802 5804 5807 5809 5811 5814 5815 5817 5819 5820 5821 5823 5824 5825 5827 5829 5830 5831 5832 5835 5836 5836 5836 5838 5838 5838 5840 5841 5841 5841 5842 5843 5844 5843 5843 5843 5844 5845 5846 5848 5849 5850 5851 5851 5852 5852 5853 5853 5853 5854 5854 5855 5856 5856 5856 5855 5855 5856 5856
5790 5792 5794 5796 5798 5800 5802 5804 5806 5809 5811 5812 5814 5815 5817 5818 5820 5821 5823 5824 5825 5827 5829 5831 5831 5831 5831 5832 5833 5834 5835 5836 5837 5837 5837 5837 5838 5838 5838 5838 5839 5840 5841 5842 5843 5844 5845 5846 5847 5847 5848 5848 5849 5849 5849 5850 5851 5851 5851 5851 5851 5852 5852
5785 5787 5789 5792 5794 5795 5797 5799 5801 5803 5805 5807 5809 5810 5812 5813 5815 5817 5818 5819 5821 5824 5825 5826 5826 5826 5827 5827 5828 5830 5831 5832 5832 5833 5833 5833 5832 5832 5833 5834 5834 5835 5835 5836 5837 5838 5840 5841 5841 5841 5842 5843 5843 5844 5845 5846 5847 5847 5846 5846 5847 5848 5848
5780 5782 5784 5786 5788 5790 5792 5794 5795 5797 5800 5802 5804 5805 5806 5807 5809 5811 5813 5815 5817 5818 5819 5820 5821 5821 5822 5823 5824 5825 5826 5827 5828 5828 5828 5829 5828 5827 5827 5827 5828 5829 5830 5830 5831 5832 5833 5834 5835 5835 5836 5837 5838 5839 5840 5841 5842 5841 5841 5842 5843 5844 5844
5775 5777 5779 5781 5783 5785 5787 5788 5790 5792 5794 5796 5799 5801 5802 5803 5805 5807 5808 5810 5811 5811 5812 5814 5815 5816 5817 5818 5819 5820 5821 5822 5823 5823 5823 5824 5824 5823 5822 5821 5821 5822 5823 5825 5826 5826 5827 5828 5829 5829 5829 5831 5832 5833 5835 5836 5836 5836 5836 5838 5839 5839 5839
5770 5772 5775 5776 5778 5780 5782 5783 5785 5787 5789 5791 5793 5795 5797 5798 5800 5802 5804 5805 5806 5806 5807 5809 5810 5811 5812 5813 5814 5815 5816 5816 5817 5817 5817 5818 5818 5818 5818 5817 5815 5815 5816 5817 5819 5820 5822 5823 5823 5824 5824 5825 5826 5827 5829 5829 5829 5830 5831 5832 5834 5834 5834
5765 5768 5770 5772 5774 5775 5776 5778 5780 5782 5784 5786 5788 5790 5792 5793 5795 5797 5798 5800 5801 5802 5803 5804 5805 5806 5807 5808 5809 5809 5809 5810 5810 5811 5811 5812 5811 5812 5813 5812 5811 5811 5811 5810 5810 5811 5813 5815 5817 5817 5818 5818 5819 5820 5821 5821 5822 5823 5824 5826 5827 5828 5828
5760 5763 5766 5768 5769 5771 5772 5774 5775 5777 5779 5781 5782 5784 5787 5788 5790 5791 5792 5794 5795 5796 5797 5798 5799 5800 5801 5802 5803 5803 5803 5804 5804 5804 5805 5805 5805 5805 5805 5805 5805 5805 5806 5806 5805 5804 5805 5806 5808 5809 5810 5811 5811 5811 5812 5813 5814 5815 5817 5819 5821 5822 5822
5756 5759 5761 5764 5766 5767 5768 5770 5771 5772 5774 5775 5777 5779 5781 5782 5784 5785 5787 5788 5789 5789 5790 5791 5792 5793 5794 5795 5796 5796 5797 5797 5798 5798 5798 5797 5797 5797 5797 5797 5797 5797 5798 5800 5800 5800 5798 5798 5799 5800 5802 5802 5802 5802 5802 5802 5803 5807 5811 5813 5815 5814 5814
5751 5754 5757 5759 5761 5763 5765 5766 5766 5768 5769 5771 5773 5774 5775 5777 5778 5779 5781 5782 5782 5783 5784 5785 5786 5787 5788 5789 5789 5790 5790 5791 5791 5791 5791 5790 5790 5789 5789 5789 5789 5789 5790 5792 5793 5793 5792 5791 5790 5791 5792 5791 5789 5789 5788 5789 5794 5800 5805 5806 5805 5805 5805
5745 5748 5751 5753 5755 5758 5760 5761 5762 5762 5764 5766 5768 5769 5771 5772 5773 5774 5775 5776 5777 5778 5779 5780 5781 5782 5782 5783 5783 5783 5783 5784 5783 5783 5783 5782 5781 5781 5781 5780 5780 5781 5781 5782 5783 5783 5784 5783 5782 5782 5783 5782 5780 5779 5779 5781 5786 5791 5793 5794 5794 5794 5795
5739 5742 5744 5746 5749 5752 5754 5755 5757 5758 5759 5760 5762 5764 5765 5766 5767 5768 5769 5769 5770 5771 5772 5773 5774 5775 5775 5776 5776 5776 5776 5776 5776 5775 5774 5773 5773 5772 5771 5771 5771 5771 5772 5772 5772 5772 5773 5774 5774 5775 5776 5773 5770 5771 5773 5775 5778 5780 5780 5781 5782 5783 5785
5734 5736 5738 5740 5743 5745 5747 5749 5751 5753 5754 5755 5756 5758 5759 5760 5760 5761 5762 5763 5764 5764 5765 5766 5766 5767 5767 5767 5768 5768 5768 5768 5767 5766 5765 5764 5764 5762 5761 5761 5761 5761 5760 5760 5760 5760 5761 5762 5763 5766 5767 5762 5759 5763 5767 5769 5770 5771 5771 5771 5772 5773 5776
Wind_Speed
21 20 18 14 12 12 12 13 14 14 15 15 14 15 15 14 14 14 14 14 14 15 14 14 13 13 13 13 14 15 15 15 14 13 14 14 14 14 14 15 15 16 16 14 13 11 11 11 11 10 10 11 12 10 8 6 5 5 6 7 9 10 12
23 21 19 17 14 12 11 13 16 17 18 18 18 18 18 17 16 14 14 15 16 16 16 15 15 14 15 15 16 16 16 16 16 16 16 16 15 15 16 17 17 17 17 15 13 12 12 13 13 11 11 12 12 10 8 7 6 5 5 7 8 10 12
21 19 17 16 14 12 10 13 17 19 19 19 20 20 20 19 17 16 16 17 17 17 16 14 14 14 15 16 17 17 18 18 18 18 18 18 18 18 18 19 19 19 18 16 14 12 13 15 15 13 13 13 13 11 9 7 6 6 5 6 8 10 11
20 18 17 15 14 14 13 14 18 20 21 20 20 21 20 20 19 19 19 18 17 16 14 14 15 15 15 15 16 17 19 20 20 20 20 20 21 21 20 20 21 21 19 17 15 14 14 15 16 15 14 14 14 12 10 8 7 6 5 6 8 9 10
17 18 19 18 17 16 15 15 16 19 22 21 19 21 21 21 21 21 20 18 17 16 15 15 15 14 14 14 15 17 19 21 22 23 23 23 24 23 21 21 22 23 21 19 17 15 15 16 17 17 16 16 15 13 11 9 8 6 5 6 7 8 8
15 16 19 20 18 16 13 12 14 18 22 22 20 20 21 22 23 22 21 19 16 16 16 15 14 13 13 14 15 17 18 21 22 23 24 24 25 24 22 23 24 24 23 21 18 16 15 16 18 18 18 18 17 14 13 11 9 7 6 6 6 6 8
15 14 18 21 18 15 13 11 12 17 21 23 22 22 23 25 24 23 22 20 18 17 16 15 14 13 14 14 14 15 17 19 21 22 24 24 25 24 23 24 24 25 24 23 20 17 17 17 18 19 19 19 18 16 14 12 10 8 6 6 6 6 8
16 15 18 21 18 15 13 10 12 16 20 24 25 24 25 25 25 24 23 20 19 18 16 15 14 14 15 14 14 13 14 16 18 20 22 23 24 24 24 24 25 26 25 23 21 19 18 18 19 19 19 20 19 17 16 13 11 9 7 6 6 7 9
19 18 20 22 20 17 14 11 14 16 19 24 25 25 26 26 25 25 23 22 21 18 16 15 15 16 16 14 13 12 12 12 14 16 18 20 22 23 25 25 27 27 26 24 22 20 19 19 19 19 19 20 20 19 17 15 12 10 8 7 6 8 10
21 20 23 24 22 21 17 13 15 18 20 22 25 25 26 26 26 25 23 23 22 19 16 16 18 18 16 14 13 12 11 10 11 13 15 17 19 22 25 27 28 28 27 26 24 21 20 21 20 19 19 20 21 20 18 16 14 11 9 8 7 10 11
23 23 24 25 25 24 21 16 16 19 19 19 22 24 25 26 26 25 23 22 22 20 19 19 20 18 16 15 14 13 12 11 10 10 11 13 14 18 23 27 29 29 28 27 25 23 22 22 21 19 19 20 22 21 19 18 15 12 10 9 9 11 12
24 24 25 26 26 25 25 21 19 20 19 17 19 22 24 25 25 25 23 21 21 22 22 22 21 19 18 17 14 13 13 12 11 10 10 10 11 14 18 24 29 31 30 29 27 24 23 23 22 20 19 21 23 23 20 19 17 14 12 11 12 13 12
25 25 26 27 26 25 25 24 22 22 20 16 16 19 22 24 24 23 22 20 21 23 23 23 22 20 19 17 15 13 13 13 11 11 11 11 12 13 15 19 25 30 31 30 28 26 24 24 22 21 21 22 24 23 21 20 18 15 13 14 15 14 13
24 26 27 28 28 26 26 26 25 24 22 18 17 18 20 23 23 22 21 20 22 23 23 23 22 21 19 18 16 13 13 13 13 13 13 13 14 13 14 17 21 25 29 29 28 27 25 24 23 22 22 23 24 23 22 21 19 16 15 16 16 15 14
23 24 25 27 27 26 26 27 26 25 23 19 18 18 20 23 23 22 21 21 22 22 22 22 22 20 19 18 15 13 14 15 15 15 15 15 16 15 15 16 19 22 25 26 26 26 26 25 24 23 23 24 25 24 22 21 19 17 17 17 17 15 14
23 23 24 26 27 26 27 28 27 25 23 20 18 19 21 23 23 23 22 21 21 20 19 20 20 18 17 17 15 15 17 17 17 18 18 17 17 17 17 18 18 20 22 23 25 26 26 25 24 24 24 25 25 24 23 22 20 18 18 18 17 16 15
25 25 26 26 27 27 27 27 26 24 23 21 19 20 22 24 25 25 24 22 22 20 20 20 18 16 15 15 16 19 20 19 19 19 19 19 18 18 19 20 20 20 21 22 24 26 26 26 24 23 25 26 26 25 24 23 21 20 20 18 17 16 17
28 28 27 27 28 28 27 27 26 23 20 19 19 20 21 24 26 27 27 26 24 23 23 22 20 17 15 15 18 21 20 19 19 20 20 20 20 20 21 21 21 21 21 22 23 24 26 26 25 24 25 26 26 25 25 24 23 22 20 18 17 18 18
30 29 28 28 29 30 28 27 27 25 21 19 20 19 18 21 24 26 27 27 27 27 26 24 23 21 18 17 19 20 19 18 18 19 20 21 22 23 24 23 21 21 21 21 22 23 24 25 25 25 26 27 26 26 26 26 24 23 21 19 19 19 20
32 31 30 30 31 31 30 28 27 27 24 22 22 21 20 20 22 25 30 31 31 31 29 25 25 24 21 20 20 20 20 19 18 19 22 24 25 26 26 25 23 22 22 21 21 21 22 24 24 24 26 28 27 27 28 27 25 23 22 21 21 21 22
33 33 32 32 32 32 30 28 27 27 25 24 24 24 24 23 22 25 29 31 31 31 29 26 25 24 23 22 22 22 22 21 20 21 23 25 27 28 28 27 25 24 23 22 21 21 21 23 24 24 26 28 29 29 30 28 26 24 23 23 23 24 24
34 35 35 34 34 32 30 29 29 29 27 26 27 26 25 24 24 25 27 28 28 27 26 25 25 25 24 24 24 24 24 23 23 23 24 25 26 27 28 29 28 26 25 24 23 22 21 23 24 24 26 29 31 31 31 29 27 26 26 25 25 25 25
36 36 36 36 36 34 32 31 32 32 31 30 29 28 26 26 27 27 28 29 28 26 26 26 26 26 26 26 26 25 25 26 27 27 27 27 27 28 28 29 30 29 28 26 24 23 23 23 25 25 27 30 32 32 31 30 29 28 28 27 27 27 25
38 37 37 37 38 36 34 34 34 34 34 34 32 31 29 28 28 29 30 31 30 29 28 27 26 27 28 28 29 28 26 27 30 31 31 31 31 31 31 32 31 31 31 28 26 26 25 25 26 27 28 30 32 33 32 32 31 31 30 30 29 28 26
39 38 38 38 39 39 37 37 38 38 38 38 38 36 33 31 29 29 30 31 31 30 29 27 27 29 29 29 31 30 28 30 34 36 35 34 35 35 35 35 34 35 35 32 29 29 29 28 27 28 29 31 33 34 35 35 34 33 33 32 31 29 27
39 39 39 39 40 40 39 39 40 40 40 40 40 39 37 34 32 31 31 31 30 30 30 28 28 30 30 31 32 33 32 34 37 38 37 36 37 37 36 35 35 36 37 36 32 31 32 31 30 30 30 32 34 37 37 37 37 36 35 35 33 31 29
40 40 40 41 41 41 41 41 40 40 41 41 41 41 40 38 37 36 35 34 33 32 31 30 30 31 32 34 36 36 36 37 38 38 38 38 39 40 37 35 34 35 37 38 36 35 35 34 34 33 33 33 35 38 40 40 39 38 38 37 35 34 31
42 42 42 43 44 44 43 43 43 42 42 42 42 42 42 42 40 39 38 38 36 34 33 33 34 35 36 38 39 38 38 38 39 39 38 38 40 40 39 38 38 39 40 40 39 39 39 37 36 37 37 36 37 38 40 41 41 41 41 39 38 36 34
42 44 44 44 46 47 46 46 46 45 44 43 43 43 44 44 42 41 40 39 37 35 35 35 36 37 38 39 39 39 39 39 40 40 40 40 41 42 44 45 44 42 43 44 43 43 43 41 40 41 41 40 39 39 40 42 43 44 44 42 40 39 37
42 44 45 45 47 49 49 49 49 48 47 46 45 45 45 45 44 44 43 41 40 39 38 38 38 39 40 40 40 41 41 41 41 42 42 42 43 44 47 50 50 47 44 44 44 45 46 44 43 44 44 43 42 41 41 42 44 46 46 44 43 43 42
42 42 44 45 46 48 50 50 50 50 50 49 48 47 47 47 47 47 46 45 44 44 43 43 43 43 44 44 44 44 44 43 44 45 46 46 47 47 48 50 52 52 51 50 48 47 46 46 46 47 47 46 45 44 44 46 47 48 48 47 46 46 46
43 42 43 43 44 46 49 50 51 51 51 51 51 50 50 51 50 50 50 49 49 49 48 48 48 47 47 47 46 47 47 47 47 48 49 49 50 51 50 51 52 52 52 54 55 53 49 47 46 48 49 49 49 48 48 50 52 51 50 50 49 49 49
44 43 42 42 42 43 44 46 48 49 50 50 51 51 51 52 52 53 53 53 53 53 52 50 49 48 46 45 45 45 47 48 48 49 50 51 52 53 53 53 54 54 53 54 56 56 55 53 50 49 50 51 51 52 53 54 55 55 54 52 51 51 52
44 44 43 42 41 41 41 43 45 47 47 48 48 48 48 49 49 50 51 51 51 50 48 47 46 45 44 43 44 45 47 48 49 50 51 53 54 56 57 57 58 58 58 56 56 56 57 57 54 51 50 51 54 55 57 60 60 59 57 55 54 54 55
46 46 45 44 43 41 41 43 45 46 46 45 45 45 45 45 45 45 45 46 46 45 45 45 45 46 46 46 47 48 49 50 51 52 53 55 56 57 59 60 60 61 61 61 59 58 58 60 60 57 55 57 59 60 62 64 63 61 59 59 60 60 60
51 49 48 48 47 44 43 44 46 47 47 45 44 44 44 44 44 45 45 46 46 47 47 47 47 47 48 49 50 51 52 52 53 54 55 56 57 58 58 59 60 61 61 60 60 59 59 60 62 62 61 63 65 64 64 63 62 62 63 65 65 66 65
54 53 52 51 50 47 44 43 45 47 47 46 45 45 45 45 46 47 47 47 48 48 48 48 48 48 48 49 51 52 53 53 54 55 56 57 58 58 59 60 61 62 63 63 64 64 63 62 61 60 61 66 69 67 64 62 61 61 65 67 67 69 68
58 56 54 52 51 49 46 44 43 44 46 47 47 47 48 48 48 48 49 48 49 49 49 50 49 49 49 49 49 50 51 52 53 55 56 57 57 59 61 62 63 65 66 67 69 70 69 69 66 61 61 67 72 70 66 65 64 64 65 65 64 66 67
Wind_Direction
177 183 185 189 202 222 230 227 223 222 226 228 228 233 238 240 238 236 236 234 234 237 241 242 240 237 233 230 233 237 240 243 245 243 242 242 242 243 243 242 241 244 249 252 256 264 271 276 274 263 254 259 267 267 266 274 283 295 314 325 331 335 341
186 190 190 190 192 204 226 238 234 227 226 228 230 235 240 245 246 243 241 239 240 242 246 249 251 249 244 239 239 240 242 245 247 247 247 247 247 244 243 244 244 245 247 250 255 263 269 273 273 262 250 255 262 260 259 267 274 288 309 323 330 335 340
198 194 193 195 193 196 212 233 241 238 232 229 231 237 242 247 250 245 239 238 240 242 245 247 248 246 244 243 243 243 243 244 246 248 249 249 249 245 243 243 245 247 249 250 252 256 262 271 275 266 253 254 257 253 252 259 266 281 303 319 328 334 339
210 206 206 202 194 199 210 223 235 240 238 233 230 235 240 244 246 242 237 236 237 239 241 239 237 237 239 242 243 242 242 242 242 243 245 247 247 246 245 245 246 248 250 249 249 251 258 268 274 268 257 254 254 248 245 251 257 274 294 312 324 332 340
219 220 222 212 199 201 210 222 232 237 239 237 233 232 235 239 242 241 238 235 233 233 233 232 233 236 239 240 241 241 240 239 238 239 240 243 246 247 246 246 247 249 249 249 249 250 254 262 269 268 259 254 252 245 241 244 250 262 281 304 318 328 339
227 231 225 210 197 196 202 218 231 233 234 234 232 231 232 236 240 241 241 237 233 231 230 230 232 235 239 240 242 242 240 239 238 238 239 240 244 247 247 246 247 248 249 249 249 248 250 256 264 267 263 257 252 245 240 239 242 250 267 292 306 320 334
230 234 217 198 189 189 193 211 229 232 231 229 227 228 230 234 237 238 240 237 233 231 229 228 231 236 243 246 248 248 245 241 238 237 238 239 241 244 246 247 249 250 250 250 250 248 247 251 258 264 264 259 252 245 240 238 237 242 257 275 287 306 319
233 230 210 195 189 189 193 210 229 233 232 228 226 228 232 235 237 238 239 238 235 233 230 229 232 239 247 254 258 257 251 245 241 239 240 240 241 242 243 246 248 249 250 251 251 249 245 245 251 259 263 261 254 247 243 239 236 238 247 258 269 290 303
236 226 209 199 197 195 195 213 230 232 232 229 227 228 233 235 237 239 240 240 240 239 235 233 235 241 249 259 265 265 260 255 249 245 244 243 243 242 242 243 245 247 248 249 249 247 244 244 247 253 259 260 255 249 245 243 239 238 241 245 261 280 292
235 226 213 209 210 207 204 213 231 233 229 228 226 228 231 234 237 239 238 239 242 243 240 236 238 243 252 261 266 268 272 271 262 254 250 247 244 241 240 241 242 245 246 247 247 245 243 243 244 248 254 257 255 249 246 245 242 241 239 239 256 274 286
231 227 218 216 217 218 216 217 233 238 232 227 227 229 233 237 239 239 237 238 242 245 243 240 240 247 254 259 263 270 278 280 275 265 256 253 250 244 240 240 241 242 243 244 245 243 242 242 243 246 249 253 253 249 245 245 245 243 238 240 255 267 279
229 228 221 220 220 223 225 223 230 239 235 230 229 230 234 239 241 240 238 236 238 240 241 240 243 248 254 257 261 268 277 284 286 277 264 262 264 258 249 243 241 242 243 243 242 241 240 240 241 241 243 247 249 248 245 245 246 243 238 243 254 263 274
225 226 222 222 222 224 229 227 226 232 234 233 235 234 234 238 239 239 237 234 231 233 236 240 245 249 251 255 259 266 276 283 286 283 273 269 272 275 270 257 248 244 244 243 242 239 238 238 239 239 239 243 247 246 244 245 246 243 240 246 254 262 275
227 226 225 225 225 224 229 229 226 228 229 227 233 237 236 235 234 233 232 228 224 225 230 238 246 249 250 253 257 266 276 278 280 284 281 275 274 280 286 279 264 253 248 244 242 239 237 236 237 238 237 240 244 244 243 245 246 242 242 249 257 265 279
232 227 224 227 229 228 230 229 224 224 225 223 227 235 237 236 235 234 231 228 225 227 230 237 245 249 250 253 258 267 273 272 273 281 287 286 281 280 283 285 279 268 259 251 244 241 240 238 238 238 238 239 240 240 241 244 244 242 244 252 260 267 280
232 226 221 224 230 231 231 230 226 224 225 223 223 231 238 241 242 241 239 236 235 235 238 242 248 252 255 259 266 269 270 268 269 274 284 292 291 286 282 280 280 277 271 264 255 251 251 250 246 241 239 239 238 238 239 242 242 242 246 254 262 270 280
226 224 220 221 226 229 230 233 235 233 230 227 226 230 237 242 244 243 240 238 239 242 245 247 249 252 257 263 268 268 268 268 269 272 279 287 292 293 289 283 280 279 277 274 270 267 267 267 261 250 242 240 238 236 237 239 240 241 245 254 263 271 280
226 224 222 221 223 227 229 231 235 237 234 231 233 236 240 243 245 244 241 238 239 241 245 248 249 251 254 258 262 264 265 266 268 270 275 282 287 291 291 289 288 286 285 282 279 276 276 277 274 260 247 242 240 237 236 237 238 240 245 253 262 270 277
227 226 224 223 224 227 229 230 231 235 237 236 234 236 243 249 251 252 250 245 242 240 241 243 247 250 251 251 254 258 262 266 269 270 274 279 283 285 286 289 293 295 294 290 285 283 281 281 278 266 253 247 243 239 237 236 236 238 244 251 259 266 272
226 227 225 224 226 228 230 231 230 232 235 235 230 227 232 242 248 250 249 246 244 244 243 242 244 248 249 248 250 255 260 265 270 271 271 273 277 280 281 284 289 292 295 296 295 294 288 282 278 270 259 252 245 240 238 236 235 237 243 249 256 262 267
226 227 226 226 228 230 232 233 232 230 229 230 230 228 228 233 239 242 244 246 247 249 251 249 246 246 247 247 248 251 256 262 267 269 268 268 270 274 276 278 282 286 290 294 297 299 292 283 277 270 261 254 247 241 238 236 234 237 242 248 254 260 264
230 228 228 228 229 232 233 233 233 231 229 227 229 229 227 230 235 238 241 246 249 250 252 251 247 245 247 249 250 250 252 256 260 263 266 267 268 271 274 275 276 280 283 286 290 293 292 286 281 274 264 257 251 243 238 236 235 238 242 247 252 258 263
233 231 231 230 231 233 233 233 234 235 236 235 234 233 228 227 230 233 235 240 245 246 246 244 244 244 247 251 253 250 250 253 255 258 263 266 269 273 274 273 271 272 275 279 283 286 287 286 283 277 267 259 254 247 241 236 236 239 242 246 250 256 261
233 233 232 232 234 234 234 234 236 239 242 245 245 242 236 232 233 233 233 236 242 247 247 246 247 247 247 250 253 251 249 249 251 253 256 260 262 264 265 266 266 266 268 271 274 278 281 282 280 276 269 261 255 249 242 237 237 239 242 245 249 254 257
231 232 232 231 233 236 236 235 237 240 242 245 246 245 242 241 241 239 240 243 247 250 252 252 250 248 247 250 255 255 251 248 251 254 258 260 259 258 256 256 256 259 260 262 266 271 274 276 277 277 273 264 256 250 244 239 237 239 243 246 248 252 255
232 232 231 229 231 236 238 235 235 237 241 244 246 246 246 248 249 247 249 252 251 251 256 257 252 247 246 248 252 254 252 252 255 260 264 267 268 267 263 256 251 253 255 255 258 263 266 269 272 275 274 267 258 252 248 244 240 241 245 247 248 250 254
233 232 231 228 228 232 236 237 234 234 237 241 244 246 248 251 252 252 254 256 256 257 261 262 255 248 247 249 250 252 255 257 261 264 269 274 276 276 273 263 254 253 255 254 253 254 259 264 267 270 271 268 262 256 252 248 244 243 246 248 249 251 253
234 233 231 229 227 228 232 236 237 237 237 239 241 245 248 251 252 253 255 258 261 264 265 262 256 252 253 255 256 258 262 266 268 269 272 277 279 279 277 271 260 253 253 254 252 251 252 256 260 264 265 266 265 262 257 252 249 247 249 250 249 251 253
235 234 232 230 228 228 230 233 236 239 240 241 242 245 249 252 254 255 257 260 261 263 261 258 256 255 256 258 261 264 267 269 272 272 272 274 276 278 281 281 275 263 254 251 252 252 252 251 253 256 260 263 265 264 260 257 253 250 250 250 251 252 253
236 236 235 233 232 231 232 233 235 237 239 241 243 245 248 252 254 255 258 260 262 261 260 259 259 259 260 262 264 266 269 271 272 273 273 274 275 276 279 283 285 281 273 264 258 254 254 254 253 253 256 259 262 263 262 260 257 252 250 249 250 252 252
235 236 237 237 237 236 236 236 237 237 239 240 242 244 247 250 252 254 256 258 260 262 263 264 264 264 265 267 267 269 270 271 271 271 273 274 274 275 276 277 280 283 285 282 275 266 261 260 258 257 257 257 258 261 261 259 255 252 250 248 248 250 252
236 235 237 238 240 240 239 239 240 240 240 241 242 243 245 247 250 253 254 256 258 260 262 264 264 265 266 267 268 268 267 267 268 269 270 271 273 274 274 272 272 274 276 279 281 279 273 268 264 262 259 257 257 258 258 257 254 251 248 247 247 249 252
238 238 237 238 239 241 241 241 242 243 244 245 246 246 246 247 249 251 254 255 257 259 261 262 263 265 266 266 266 266 266 267 268 269 270 271 273 274 273 271 270 270 270 272 276 278 277 274 272 269 264 260 258 256 255 254 254 251 247 245 245 249 252
242 242 240 237 237 238 241 243 245 246 248 249 250 251 251 252 252 253 254 256 258 260 262 264 266 267 268 268 267 267 268 268 269 269 271 271 271 272 272 271 271 271 271 271 271 271 271 271 271 270 266 261 258 256 254 252 250 249 247 245 245 247 250
247 247 245 242 238 237 240 243 245 247 248 248 249 250 251 252 253 254 254 256 258 260 263 265 267 267 266 266 267 267 268 268 269 269 270 270 270 270 271 271 271 271 271 271 269 267 265 263 262 261 259 257 255 253 252 251 249 247 246 245 243 244 246
249 251 250 248 246 246 245 244 244 246 247 247 247 248 249 249 250 251 253 255 257 258 260 261 262 262 261 261 262 263 264 265 266 267 268 269 270 271 271 272 272 272 271 270 268 266 264 262 261 261 260 259 257 254 253 254 253 249 247 245 244 243 244
247 250 250 250 251 253 254 251 247 245 245 247 249 251 252 252 253 254 255 257 259 260 261 262 263 262 261 260 260 260 261 262 264 265 267 269 271 272 271 270 270 269 268 267 266 264 263 261 260 261 262 261 259 257 257 257 257 254 250 248 246 245 244
244 246 248 249 252 256 258 256 252 248 247 249 251 254 256 258 259 259 259 262 264 266 267 268 268 268 267 266 266 265 265 266 267 269 270 272 273 272 270 268 267 266 265 264 262 261 260 259 257 257 258 258 258 257 257 258 258 257 253 248 245 244 244